Regional Weather Roundup
Issued by NWS Pendleton, OR

Home | Current Version | Previous Version | Text Only | Print | Product List | Glossary On
Versions: 1 2 3 4 5 6 7 8 9 10 11 12 13 14 15 16 17 18 19 20 21 22 23 24 25 26 27 28 29 30 31 32 33 34 35 36 37 38 39 40 41 42 43 44 45 46 47 48 49 50
691
ASUS46 KPDT 251925
RWRPDT
PENDLETON REGIONAL WEATHER ROUNDUP
NATIONAL WEATHER SERVICE PENDLETON OREGON
1100 AM PST SAT FEB 25 2017

NOTE: FAIR INDICATES FEW OR NO CLOUDS BELOW 12,000 FEET WITH NO
SIGNIFICANT WEATHER AND/OR OBSTRUCTIONS TO VISIBILITY.

# INDICATES UNOFFICIAL STATION AND DATA

WAZ520-252010-
EAST SLOPES OF WASHINGTON CASCADES

CITY            SKY/WX      TMP DP  RH  WIND    PRES   REMARKS
#CLE ELUM HS    N/A         35  22  59  NW5     30.06F
#CLE ELUM LAKE  N/A         33  23  66  W2      30.17F
#GLENWOOD       N/A         31  22  69  CALM    30.26F
#MANASTASH CYN  N/A         35  18  49  S1      30.03F
#NELSON 3SW     N/A         31  23  72  E1      30.45F
#NILE           N/A         31  20  63  CALM    29.46F
#TEANAWAY 4NE   N/A         31  22  69  CALM    N/A
#TROUT LAKE 1NE N/A         34  26  72  W1      30.23F
#TROUT LAKE 1E  N/A         33  25  72  CALM    30.16F
$$

WAZ521-252010-
SIMCOE HIGHLANDS

CITY            SKY/WX      TMP DP  RH  WIND    PRES   REMARKS
#BICKLETON HS   N/A         32  21  63  SW13    29.70F WCI 22
#CENTERVILLE 1SWN/A         24  21  88  CALM    30.24F
#GOLDENDALE 1NE N/A         29  14  53  CALM    N/A
#GOLDENDALE 4W  N/A         30  -2  24  SE1     30.18F
#GOODNOE HILLS  N/A         36  22  56  W12     30.07F WCI 28
#LYLE 6NE       N/A         32  26  78  S2      30.21F
#PITT 4SE       N/A         32  25  75  CALM    30.27F
$$

WAZ026-252010-
KITTITAS VALLEY

CITY            SKY/WX      TMP DP  RH  WIND    PRES   REMARKS
ELLENSBURG AP   SUNNY       27  16  63  CALM    30.13F
#ELLENSBURG CWU N/A         27  19  71  CALM    30.17F
#ELLENSBURG 3NE N/A         22  17  81  CALM    28.18F
#KITTITAS 4N    N/A         29  20  69  E1      30.13F
#KITTITAS 3S    N/A         18  15  88  CALM    30.26F
#THORP 6N       N/A         28  20  71  W3      30.24F
$$

WAZ027-252010-
YAKIMA VALLEY

CITY            SKY/WX      TMP DP  RH  WIND    PRES   REMARKS
SUNNYSIDE AP    SUNNY       33  24  69  CALM    30.19F
YAKIMA AIRPORT  SUNNY       35  20  54  CALM    30.17F
YAKIMA-VAGABOND SUNNY       30  20  66  W3      30.13F
#DONALD 2NE     N/A         40   0  18  SW5     29.01F
#GRANDVIEW      N/A         36  22  56  CALM    30.24F
#MABTON         N/A         34  27  75  CALM    30.19F
#MOXEE 2E       N/A         35   0  22  CALM    30.11F
#NACHES 2SW     N/A         36  23  59  NW2     30.14S
#TERRACE HTS    N/A         38  25  59  CALM    30.20F
#TOPPENISH      N/A         34  23  64  CALM    30.14F
#WEST VALLEY    N/A         32  20  61  CALM    30.22F
#W YAKIMA       N/A         33  21  61  CALM    30.23F
#WHITE SWAN 5E  N/A         32  24  72  CALM    30.24F
#WILEY CITY 3W  N/A         31  19  61  CALM    30.12F
$$

WAZ028-252010-
LOWER COLUMBIA BASIN...WASHINGTON

CITY            SKY/WX      TMP DP  RH  WIND    PRES   REMARKS
HANFORD         SUNNY       37  24  59  E5      30.15F
PASCO           SUNNY       39  26  59  CALM    30.21F
PROSSER AWOS    N/A         37  28  70  CALM    30.22F
RICHLAND AWOS   SUNNY       42  29  60  SW12    30.20F WCI 35
#BENTON CITY    N/A         39  29  67  SW2     30.12F
#CONNELL 5N     N/A         34  27  75  S5      30.22F
#CONNELL 5NW    N/A         34  28  78  SW5     30.18F
#ELTOPIA 6NW    N/A         35  29  78  CALM    29.14F
#KAHLOTUS       N/A         34  28  78  W10     30.21F
#KENNEWICK 3S   N/A         39  29  67  SW2     30.22F
#PATERSON       N/A         36  29  75  SW2     30.21F
#SAGEMOOR 2W    N/A         35  28  75  S7      30.05F
#TOUCHET 2S     N/A         37  31  79  NE1     30.21F
#WEST PASCO     N/A         41  31  67  CALM    30.21F
$$

WAZ029-252010-
FOOTHILLS OF THE BLUES...WASHINGTON

CITY            SKY/WX      TMP DP  RH  WIND    PRES   REMARKS
WALLA WALLA AP  MOCLDY      36  26  67  S7      30.17F
#CLYDE 6NW      N/A         34  28  78  CALM    30.22F
#DAYTON SCHOOL  N/A         36  19  50  SW6     30.16F
#LOWDEN 2SE     N/A         37  29  72  E2      30.17F
#PLEASANT VIEW 1N/A         34  28  78  S9      30.24F
#PRESCOTT       N/A         37  30  75  SW2     30.22F
#WHITMAN COLLEGEN/A         37  27  67  S3      30.27F
#WAITSBURG 5S   N/A         33  27  78  S7      30.32F
#WALLA WALLA 5E N/A         39  31  73  SW6     N/A
#WALLA WALLA U  N/A         38  28  67  CALM    30.23F
#WHITMAN MISSIONN/A         36  31  82  CALM    30.24F
$$

WAZ030-252010-
BLUE MOUNTAINS...WASHINGTON

CITY            SKY/WX      TMP DP  RH  WIND    PRES   REMARKS
#DIXIE 5SE      N/A         28  22  78  W6      30.00F
#SKI BLUEWOOD   N/A         26  19  74  S2      29.98F
$$

ORZ009-041-WAZ024-252010-
COLUMBIA RIVER GORGE

CITY            SKY/WX      TMP DP  RH  WIND    PRES   REMARKS
THE DALLES AP   SUNNY       38  27  64  NE3     30.24F
#ARLINGTON AIRPON/A         36  28  72  W5      30.24F
#ARLINGTON HS   N/A         38  27  64  CALM    30.16F
#CELILO DOT     N/A         33  23  66  SW3     N/A
#LYLE           N/A         37  28  70  W1      30.25F
#MOSIER 1S      N/A         36  18  47  CALM    30.18F
#MURDOCK        N/A         37  28  70  SW1     30.24F
#RUFUS DOT      N/A         36  27  69  N3      N/A
#SMITHVILLE     N/A         37  29  72  NW1     30.20F

$$

ORZ510-252010-
NORTH CENTRAL OREGON

CITY            SKY/WX      TMP DP  RH  WIND    PRES   REMARKS
#CHENOWITH 1W   N/A         26  22  85  NW5     N/A
#COW CYN RST AREN/A         32  23  69  S6      N/A
#DUFUR 9E       N/A         35  26  69  W5      30.27F
#GRASS VALLEY 1SN/A         36  28  72  SW8     30.26F
#KENT DOT       N/A         35  19  52  N8      N/A
#MAUPIN SCHOOL  N/A         38  28  67  CALM    30.22F
#MORO SCHOOL    N/A         38  30  73  SW6     30.21F
#SHANIKO 5WSW   N/A         30  19  63  N10     N/A
#SHANIKO 4NW    N/A         31  23  72  SW3     30.09S
#TYGH VALLEY 2NEN/A         37  27  67  CALM    30.23F
#WAPANITIA AIRPON/A         38  27  64  S3      30.24F
#WASCO DOT      N/A         40  23  50  SW5     N/A
#WASCO 5NE      N/A         34  28  78  N2      30.24F
$$

ORZ511-252010-
CENTRAL OREGON

CITY            SKY/WX      TMP DP  RH  WIND    PRES   REMARKS
BEND AIRPORT    SUNNY       34  19  54  SW10    30.11F
MADRAS AIRPORT  PTCLDY      37  25  61  S5      30.17F
PRINEVILLE AP   PTCLDY      32  23  69  CALM    30.12F
REDMOND AIRPORT SUNNY       36  18  47  S8      30.12F
#ASHWOOD SCHOOL N/A         36  25  64  CALM    30.09F
#BEND 1SW       N/A         33  24  69  W3      N/A
#BEND-AWBREY    N/A         34  24  66  W5      30.23F
#BEND-KIM LN    N/A         33  23  66  CALM    30.18F
#CULVER         N/A         34  24  66  SE2     30.17F
#CULVER 8W      N/A         38  23  54  E5      30.12F
#LAKE BILLY CHINN/A         43  N/A N/A E1      30.21F
#POWELL BUTTE 3EN/A         31  23  72  SE2     N/A
#POWELL BUTTE   N/A         33  16  49  CALM    30.05F
#WARM SPRINGS   N/A         38  28  67  CALM    30.14F

$$


ORZ509-252010-
EAST SLOPES OF OREGON CASCADES

CITY            SKY/WX      TMP DP  RH  WIND    PRES   REMARKS
SISTERS AWOS    N/A         36  23  59  CALM    30.08S
#BLUE BOX PASS  N/A         29  N/A N/A CALM    N/A
#CAMP SHERMAN   N/A         39  24  54  CALM    30.27F
#LA PINE 4NW    N/A         28  20  71  CALM    30.33F
#LAVA BUTTE DOT N/A         28  17  63  SE3     N/A
#SISTERS ODOT   N/A         34  N/A N/A W2      N/A
#SISTERS 3N     N/A         36  20  52  CALM    30.08F
#SUNRIVER       N/A         32  24  72  SW2     30.29F
#TUMALO 3W      N/A         34  21  58  E1      30.12S
#WANOGA BUTTE D N/A         20  18  92  W5      N/A

$$

ORZ044-252010-
LOWER COLUMBIA BASIN...OREGON

CITY            SKY/WX      TMP DP  RH  WIND    PRES   REMARKS
HERMISTON       SUNNY       39  29  67  W7      30.20F
#BOARDMAN SCHOOLN/A         40  28  62  SW6     30.20F
#BOARDMAN 8SW   N/A         40  31  70  SW7     30.22F
#ECHO 8SW       N/A         40  28  62  W2      30.20F
#I-84 EX 198 DOTN/A         36  24  61  N5      N/A
#IONE SCHOOL    N/A         38  23  54  W3      30.24F
#UMATILLA       N/A         40  28  62  CALM    30.16F
$$

ORZ507-252010-
NORTHERN FOOTHILLS OF THE BLUES

CITY            SKY/WX      TMP DP  RH  WIND    PRES   REMARKS
PENDLETON AIRPT SUNNY       35  25  66  CALM    30.15F
#ADAMS 3WNW     N/A         35  26  69  SW3     30.22F
#ATHENA         N/A         34  26  72  SW3     30.25F
#CAYUSE         N/A         36  26  67  W2      30.21F
#HELIX SCHOOL   N/A         36  28  72  N3      30.23F
#HELIX 3N       N/A         34  27  75  SW7     30.10F
#HOLDMAN 5SE    N/A         36  28  72  SW3     30.15F
#HOLDMAN 6E     N/A         35  28  75  SW2     30.02F
#M-F FERNDALE   N/A         41  27  57  CALM    30.15F
#M-F GROVE ELEM N/A         38  23  54  SW8     30.14F
#M-FREEWATER 5SEN/A         39  25  57  S7      30.14F
#PENDLETON DNTN N/A         40  27  59  CALM    30.16F
#PDT AQUATIC CTRN/A         37  28  70  SW3     30.16F
#PDT SUNRIDGE   N/A         37  26  64  CALM    30.18F
#PENDLETON 7NW  N/A         45  29  53  W2      31.21S
#PILOT ROCK     N/A         39  26  59  E3      30.15F
#TUTUILLA       N/A         38  27  64  W1      30.22F
#UMAPINE 2E     N/A         39  30  70  CALM    30.16F
#WESTON SCHOOL  N/A         34  20  56  W8      30.06S

$$

ORZ508-252010-
SOUTHERN FOOTHILLS OF THE BLUES

CITY            SKY/WX      TMP DP  RH  WIND    PRES   REMARKS
LEXINGTON       MOSUNNY     39  27  62  W6      30.18F
#AJAX           N/A         35  21  56  S7      30.27F
#CONDON SCHOOL  N/A         33  26  75  SW10    30.06F
#CONDON 5W      N/A         30  22  72  SW9     30.06S
#HEPPNER EOC    N/A         36  26  67  NW5     30.16F
#HEPPNER 4NE    N/A         33  26  75  W7      30.23F
#LEXINGTON 2SE  N/A         39  28  64  W5      30.13F
#MIKKALO        N/A         37  24  59  W5      30.26F
#OLEX 4N        N/A         37  29  72  W6      30.16F
#RUGGS 5NE      N/A         33  23  66  W8      30.27S
#RUGGS 2SW      N/A         35  23  61  W9      30.25F

$$

ORZ502-503-252010-
BLUE MOUNTAINS

CITY            SKY/WX      TMP DP  RH  WIND    PRES   REMARKS
MEACHAM         PTCLDY      30  15  53  CALM    30.06S
#BATTLE MTN DOT N/A         22  13  68  S6      N/A
#GREENHORN 9SW  N/A         31  18  58  CALM    30.07F
#HEPPNER 15SE   N/A         32  23  69  CALM    30.31F
#LADD CYN SMT   N/A         28  16  60  SE12    N/A    WCI 18
#LADD CREEK ODOTN/A         30  16  55  SE5     N/A
#LONG CREEK HS  N/A         30  23  75  CALM    N/A
#N POWDER DOT   N/A         29  19  66  SW3     N/A
#PIKES PEAK     N/A         26  22  85  NW9     27.99S
#TOLLGATE       N/A         24  22  92  SW3     29.85F
#TROY SCHOOL    N/A         35  26  69  CALM    30.05F
#UKIAH          N/A         26  21  81  CALM    30.19F
#WESTON 4E      N/A         29  20  69  S7      30.21F
$$

ORZ505-252010-
JOHN DAY BASIN

CITY            SKY/WX      TMP DP  RH  WIND    PRES   REMARKS
JOHN DAY        SUNNY       34  17  49  CALM    30.10F
#JOHN DAY KJDY  N/A         31  N/A N/A W5      31.02S
#ANTELOPE 9ESE  N/A         42  27  55  NE2     N/A
#DAYVILLE SCHOOLN/A         34  15  45  E1      30.10F
#MITCHELL       N/A         36  23  59  CALM    30.27F
#MITCHELL 8NW   N/A         33  19  56  W2      30.06F
#MONUMENT HS    N/A         37  20  50  SW1     30.11F
#MT. VERNON 5SE N/A         30  17  58  CALM    30.03F
#SPRAY SCHOOL   N/A         39  N/A N/A CALM    N/A
#WINLOCK        N/A         35  20  54  NW5     30.07F
$$

ORZ506-252010-
OCHOCO AND JOHN DAY HIGHLANDS

CITY            SKY/WX      TMP DP  RH  WIND    PRES   REMARKS
#HORSE RIDGE DO N/A         32  18  56  CALM    N/A
#PAULINA SCHOOL N/A         31  17  56  N1      N/A
#SENECA         N/A         17  N/A N/A CALM    N/A
#SENECA 9NW     N/A         18  11  74  SW1     30.35F
$$

ORZ049-252010-
GRANDE RONDE VALLEY

CITY            SKY/WX      TMP DP  RH  WIND    PRES   REMARKS
LA GRANDE       MOSUNNY     36  19  50  SE3     30.10F
#COVE           N/A         33  22  63  CALM    30.13F
#COVE SCHOOL    N/A         35  21  56  CALM    30.11F
#COVE 6NW       N/A         35  23  61  CALM    30.24F
#ELGIN 3N       N/A         34  16  47  SW7     30.06F
#ELGIN 1E       N/A         33  20  58  CALM    N/A
#IMBLER SCHOOL  N/A         31  21  66  SE5     30.06F
#ISLAND CITY 4N N/A         42  38  86  SW1     30.27S
#UNION 1S       N/A         33  20  58  S6      30.24F
$$

ORZ050-252010-
WALLOWA COUNTY

CITY            SKY/WX      TMP DP  RH  WIND    PRES   REMARKS
JOSEPH AIRPORT  MOCLDY      28  16  60  S3      30.04F
#IMNAHA SCHOOL  N/A         40  20  44  E7      30.10F
#IMNAHA 10S     N/A         29  19  66  CALM    30.11S
#JOSEPH 3N      N/A         26  14  60  CALM    30.06F
#JOSEPH 3W      N/A         28  11  48  CALM    29.86S
#LOSTINE        N/A         31  21  66  CALM    30.03F
#LOSTINE 3SE    N/A         29  20  69  CALM    30.10F
#MT HOWARD 8000 N/A         12   9  87  SW2     29.78S
#PROMISE 1S     N/A         29  18  63  NE5     30.32F
#WALLOWA SCHOOL N/A         30  21  69  CALM    30.06F



$$



USA.gov is the U.S. government's official web portal to all federal, state and local government web resources and services.